Location: Unspecified
(0.0000°N, 0.0000°E)
Time: 11:42:02
(UTC+00:00)

A-11 Canister half - Pass Details

Date: 07 August 2021
Orbit: 1526 x 1683 km, 47.3° (Epoch: 27 September)

Event Time Altitude Azimuth Distance (km) Brightness Sun altitude
Rises 05:38:50 0° 208° (SSW) 4,793 11.2 -6.5°
Reaches altitude 10° 05:42:03 10° 202° (SSW) 3,829 10.7 -5.7°
Maximum altitude 05:51:25 49° 129° (SE) 2,029 10.0 -3.5°
Drops below altitude 10° 06:00:59 10° 58° (ENE) 3,923 12.8 -1.2°
Sets 06:04:18 0° 52° (NE) 4,918 13.2 -0.4°
